Hourly Weather Kozlakovo

Today, 22 October, Thursday

Time Temperature Precipitation Wind Pressure Humidity
00:00 +4°C° 0 mm 1 mps 743 mmHg 98%
01:00 +4°C° 0 mm 1 mps 743 mmHg 98%
02:00 +4°C° 0 mm 1 mps 743 mmHg 98%
03:00 +3°C° 0 mm 2 mps 743 mmHg 98%
04:00 +3°C° 0 mm 2 mps 743 mmHg 98%
05:00 +3°C° 0 mm 2 mps 742 mmHg 98%
06:00 +4°C° 0 mm 2 mps 742 mmHg 97%
07:00 +3°C° 0 mm 3 mps 742 mmHg 96%
08:00 +4°C° 0 mm 3 mps 742 mmHg 95%
09:00 +4°C° 0 mm 3 mps 742 mmHg 93%
10:00 +5°C° 0 mm 4 mps 741 mmHg 91%
11:00 +6°C° 0 mm 4 mps 741 mmHg 89%
12:00 +6°C° 0.3 mm 4 mps 740 mmHg 90%
13:00 +6°C° 0.3 mm 5 mps 740 mmHg 92%
14:00 +6°C° 0.3 mm 5 mps 739 mmHg 93%
15:00 +6°C° 0.3 mm 5 mps 738 mmHg 93%
16:00 +6°C° 0.3 mm 5 mps 738 mmHg 93%
17:00 +6°C° 0.3 mm 5 mps 737 mmHg 93%
18:00 +6°C° 0 mm 5 mps 736 mmHg 92%
19:00 +7°C° 0 mm 5 mps 736 mmHg 91%
20:00 +7°C° 0 mm 5 mps 736 mmHg 91%
21:00 +8°C° 0.1 mm 5 mps 735 mmHg 90%
22:00 +8°C° 0.1 mm 6 mps 734 mmHg 90%
23:00 +9°C° 0.1 mm 6 mps 734 mmHg 90%

Tomorrow, 23 October, Friday

Time Temperature Precipitation Wind Pressure Humidity
00:00 +9°C° 0.1 mm 6 mps 734 mmHg 89%
01:00 +10°C° 0.1 mm 7 mps 734 mmHg 87%
02:00 +10°C° 0.1 mm 7 mps 735 mmHg 85%
03:00 +10°C° 0 mm 7 mps 735 mmHg 85%
04:00 +10°C° 0 mm 6 mps 735 mmHg 84%
05:00 +10°C° 0 mm 6 mps 735 mmHg 84%
06:00 +10°C° 0 mm 6 mps 735 mmHg 84%
07:00 +10°C° 0 mm 6 mps 735 mmHg 85%
08:00 +9°C° 0 mm 6 mps 736 mmHg 86%
09:00 +10°C° 0 mm 6 mps 736 mmHg 84%
10:00 +10°C° 0 mm 5 mps 736 mmHg 81%
11:00 +10°C° 0 mm 5 mps 736 mmHg 79%
12:00 +10°C° 0.1 mm 5 mps 736 mmHg 80%
13:00 +10°C° 0.1 mm 5 mps 736 mmHg 82%
14:00 +10°C° 0.1 mm 5 mps 735 mmHg 83%
15:00 +10°C° 1 mm 5 mps 735 mmHg 87%
16:00 +10°C° 1 mm 5 mps 734 mmHg 90%
17:00 +9°C° 1 mm 5 mps 734 mmHg 94%
18:00 +9°C° 0.6 mm 5 mps 734 mmHg 93%
19:00 +9°C° 0.6 mm 5 mps 733 mmHg 92%
20:00 +10°C° 0.6 mm 5 mps 733 mmHg 90%
21:00 +9°C° 0.1 mm 5 mps 733 mmHg 89%
22:00 +9°C° 0.1 mm 5 mps 733 mmHg 88%
23:00 +9°C° 0.1 mm 5 mps 734 mmHg 87%

Day after tomorrow, 24 October, Saturday

Time Temperature Precipitation Wind Pressure Humidity
00:00 +8°C° 0 mm 5 mps 734 mmHg 88%
01:00 +8°C° 0 mm 5 mps 735 mmHg 88%
02:00 +7°C° 0 mm 4 mps 735 mmHg 88%
03:00 +7°C° 0 mm 4 mps 736 mmHg 87%
04:00 +8°C° 0 mm 4 mps 736 mmHg 86%
05:00 +8°C° 0 mm 4 mps 736 mmHg 85%
06:00 +7°C° 0 mm 4 mps 737 mmHg 86%
07:00 +7°C° 0 mm 4 mps 737 mmHg 88%
08:00 +8°C° 0 mm 3 mps 737 mmHg 89%
09:00 +8°C° 0 mm 3 mps 738 mmHg 84%
10:00 +9°C° 0 mm 3 mps 738 mmHg 80%
11:00 +10°C° 0 mm 3 mps 738 mmHg 75%
12:00 +10°C° 0 mm 3 mps 738 mmHg 76%
13:00 +10°C° 0 mm 3 mps 738 mmHg 76%
14:00 +10°C° 0 mm 3 mps 738 mmHg 76%
15:00 +9°C° 0 mm 3 mps 738 mmHg 79%
16:00 +9°C° 0 mm 3 mps 738 mmHg 83%
17:00 +8°C° 0 mm 3 mps 738 mmHg 86%
18:00 +8°C° 0 mm 3 mps 738 mmHg 88%
19:00 +8°C° 0 mm 2 mps 738 mmHg 89%
20:00 +7°C° 0 mm 2 mps 738 mmHg 90%
21:00 +7°C° 0.1 mm 2 mps 738 mmHg 92%
22:00 +7°C° 0.1 mm 2 mps 738 mmHg 93%
23:00 +7°C° 0.1 mm 2 mps 738 mmHg 94%

, 25 October, Sunday

Time Temperature Precipitation Wind Pressure Humidity
00:00 +7°C° 0.3 mm 2 mps 738 mmHg 94%
01:00 +7°C° 0.3 mm 2 mps 738 mmHg 95%
02:00 +7°C° 0.3 mm 2 mps 738 mmHg 95%
03:00 +7°C° 0.1 mm 2 mps 738 mmHg 96%
04:00 +7°C° 0.1 mm 2 mps 738 mmHg 96%
05:00 +7°C° 0.1 mm 2 mps 737 mmHg 96%
06:00 +7°C° 0.2 mm 2 mps 738 mmHg 96%
07:00 +7°C° 0.2 mm 2 mps 738 mmHg 95%
08:00 +7°C° 0.2 mm 2 mps 738 mmHg 95%
09:00 +8°C° 0.1 mm 2 mps 738 mmHg 92%
10:00 +8°C° 0.1 mm 3 mps 738 mmHg 89%
11:00 +9°C° 0.1 mm 3 mps 739 mmHg 86%
12:00 +9°C° 0.1 mm 3 mps 739 mmHg 85%
13:00 +9°C° 0.1 mm 3 mps 739 mmHg 83%
14:00 +8°C° 0.1 mm 4 mps 740 mmHg 82%
15:00 +7°C° 0 mm 4 mps 740 mmHg 84%
16:00 +8°C° 0 mm 3 mps 741 mmHg 87%
17:00 +7°C° 0 mm 3 mps 741 mmHg 89%
18:00 +7°C° 0 mm 3 mps 742 mmHg 89%
19:00 +7°C° 0 mm 3 mps 743 mmHg 89%
20:00 +7°C° 0 mm 3 mps 743 mmHg 90%
21:00 +7°C° 0 mm 3 mps 744 mmHg 90%
22:00 +7°C° 0 mm 3 mps 744 mmHg 90%
23:00 +5°C° 0 mm 3 mps 745 mmHg 90%

25 October, Sunday

Time Temperature Precipitation Wind Pressure Humidity
00:00 +7°C° 0.3 mm 2 mps 738 mmHg 94%
01:00 +7°C° 0.3 mm 2 mps 738 mmHg 95%
02:00 +7°C° 0.3 mm 2 mps 738 mmHg 95%
03:00 +7°C° 0.1 mm 2 mps 738 mmHg 96%
04:00 +7°C° 0.1 mm 2 mps 738 mmHg 96%
05:00 +7°C° 0.1 mm 2 mps 737 mmHg 96%
06:00 +7°C° 0.2 mm 2 mps 738 mmHg 96%
07:00 +7°C° 0.2 mm 2 mps 738 mmHg 95%
08:00 +7°C° 0.2 mm 2 mps 738 mmHg 95%
09:00 +8°C° 0.1 mm 2 mps 738 mmHg 92%
10:00 +8°C° 0.1 mm 3 mps 738 mmHg 89%
11:00 +9°C° 0.1 mm 3 mps 739 mmHg 86%
12:00 +9°C° 0.1 mm 3 mps 739 mmHg 85%
13:00 +9°C° 0.1 mm 3 mps 739 mmHg 83%
14:00 +8°C° 0.1 mm 4 mps 740 mmHg 82%
15:00 +7°C° 0 mm 4 mps 740 mmHg 84%
16:00 +8°C° 0 mm 3 mps 741 mmHg 87%
17:00 +7°C° 0 mm 3 mps 741 mmHg 89%
18:00 +7°C° 0 mm 3 mps 742 mmHg 89%
19:00 +7°C° 0 mm 3 mps 743 mmHg 89%
20:00 +7°C° 0 mm 3 mps 743 mmHg 90%
21:00 +7°C° 0 mm 3 mps 744 mmHg 90%
22:00 +7°C° 0 mm 3 mps 744 mmHg 90%
23:00 +5°C° 0 mm 3 mps 745 mmHg 90%

26 October, Monday

Time Temperature Precipitation Wind Pressure Humidity
00:00 +5°C° 0 mm 3 mps 745 mmHg 92%
01:00 +5°C° 0 mm 2 mps 745 mmHg 93%
02:00 +5°C° 0 mm 2 mps 746 mmHg 94%
03:00 +5°C° 0 mm 2 mps 746 mmHg 94%
04:00 +4°C° 0 mm 2 mps 746 mmHg 95%
05:00 +4°C° 0 mm 2 mps 747 mmHg 95%
06:00 +5°C° 0 mm 1 mps 747 mmHg 94%
07:00 +5°C° 0 mm 1 mps 748 mmHg 94%
08:00 +5°C° 0 mm 1 mps 748 mmHg 93%
09:00 +6°C° 0 mm 1 mps 748 mmHg 88%
10:00 +7°C° 0 mm 1 mps 749 mmHg 83%
11:00 +8°C° 0 mm 0 mps 749 mmHg 77%
12:00 +9°C° 0 mm 1 mps 749 mmHg 76%
13:00 +9°C° 0 mm 1 mps 749 mmHg 74%
14:00 +9°C° 0 mm 1 mps 749 mmHg 73%
15:00 +8°C° 0 mm 1 mps 749 mmHg 78%
16:00 +7°C° 0 mm 1 mps 749 mmHg 83%
17:00 +6°C° 0 mm 1 mps 749 mmHg 88%
18:00 +6°C° 0 mm 1 mps 749 mmHg 89%
19:00 +6°C° 0 mm 1 mps 749 mmHg 90%
20:00 +5°C° 0 mm 1 mps 750 mmHg 91%
21:00 +4°C° 0 mm 2 mps 750 mmHg 91%
22:00 +4°C° 0 mm 2 mps 750 mmHg 92%
23:00 +4°C° 0 mm 2 mps 750 mmHg 92%

27 October, Tuesday

Time Temperature Precipitation Wind Pressure Humidity
00:00 +3°C° 0 mm 2 mps 750 mmHg 93%
01:00 +3°C° 0 mm 2 mps 750 mmHg 93%
02:00 +3°C° 0 mm 2 mps 750 mmHg 94%
03:00 +3°C° 0 mm 2 mps 750 mmHg 94%
04:00 +3°C° 0 mm 2 mps 750 mmHg 95%
05:00 +3°C° 0 mm 2 mps 750 mmHg 95%
06:00 +3°C° 0 mm 2 mps 750 mmHg 94%
07:00 +2°C° 0 mm 3 mps 750 mmHg 94%
08:00 +2°C° 0 mm 3 mps 750 mmHg 93%
09:00 +4°C° 0 mm 3 mps 750 mmHg 89%
10:00 +5°C° 0 mm 3 mps 750 mmHg 84%
11:00 +6°C° 0 mm 4 mps 750 mmHg 79%
12:00 +7°C° 0 mm 4 mps 749 mmHg 78%
13:00 +7°C° 0 mm 4 mps 749 mmHg 78%
14:00 +8°C° 0 mm 4 mps 749 mmHg 77%
15:00 +7°C° 0 mm 4 mps 749 mmHg 81%
16:00 +7°C° 0 mm 3 mps 749 mmHg 85%
17:00 +7°C° 0 mm 3 mps 748 mmHg 89%
18:00 +7°C° 0 mm 3 mps 748 mmHg 88%
19:00 +6°C° 0 mm 4 mps 748 mmHg 88%
20:00 +6°C° 0 mm 4 mps 748 mmHg 87%
21:00 +6°C° 0 mm 4 mps 748 mmHg 88%
22:00 +5°C° 0 mm 3 mps 748 mmHg 89%
23:00 +5°C° 0 mm 3 mps 748 mmHg 89%
Show more